Regional Weather Roundup
Issued by NWS

Home | Current Version | Previous Version | Text Only | Print | Product List | Glossary Off
Versions: 1 2 3 4 5 6 7 8 9 10 11 12 13 14 15 16 17 18 19 20 21 22 23 24 25 26 27 28 29 30 31 32 33 34 35 36 37 38 39 40 41 42 43 44 45 46 47 48 49 50

000
ASUS43 KBIS 191002
RWRND

NORTH DAKOTA REGIONAL WEATHER ROUNDUP
NATIONAL WEATHER SERVICE BISMARCK ND
500 AM CDT THU APR 19 2018

NOTE: "FAIR" INDICATES FEW OR NO CLOUDS BELOW 12,000 FEET WITH NO
SIGNIFICANT WEATHER AND/OR OBSTRUCTIONS TO VISIBILITY.


NDZ001>003-009>011-017-191100-
NORTHWEST NORTH DAKOTA

CITY           SKY/WX    TMP DP  RH WIND       PRES   REMARKS
WILLISTON      CLOUDY    33  32  96 NE7       30.37R FOG
MINOT          CLOUDY    36  33  89 W3        30.35R FOG
MINOT AFB      CLOUDY    33  33  99 NW8       30.34R FOG
$$

NDZ018>021-031>035-040>046-191100-
SOUTHWEST NORTH DAKOTA

CITY           SKY/WX    TMP DP  RH WIND       PRES   REMARKS
BISMARCK       FAIR      24  23  96 CALM      30.38R
DICKINSON      SNOW      26  25  96 E6        30.31S VSB<1/4 WCI  19
GARRISON         N/A     28  26  92 N7        30.35R
HETTINGER ARPT FAIR      23  20  88 CALM      30.34R
$$

NDZ004>008-012>016-024-026-027-054-191100-
NORTHEAST NORTH DAKOTA

CITY           SKY/WX    TMP DP  RH WIND       PRES   REMARKS
GRAND FORKS    FAIR      30  28  92 CALM      30.35R
GRND FRKS AFB  FAIR      30  27  91 SW5       30.34S
DEVILS LAKE    FAIR      28  25  88 CALM      30.35R
$$

NDZ022-023-025-028>030-036>039-047>053-191100-
SOUTHEAST NORTH DAKOTA

CITY           SKY/WX    TMP DP  RH WIND       PRES   REMARKS
FARGO          FAIR      31  29  92 CALM      30.35R
JAMESTOWN      CLOUDY    30  28  92 NW3       30.33R
$$





USA.gov is the U.S. government's official web portal to all federal, state and local government web resources and services.